Regional Weather Roundup
Issued by NWS

Home | Current Version | Previous Version | Text Only | Print | Product List | Glossary On
Versions: 1 2 3 4 5 6 7 8 9 10 11 12 13 14 15 16 17 18 19 20 21 22 23 24 25 26 27 28 29 30 31 32 33 34 35 36 37 38 39 40 41 42 43 44 45 46 47 48 49 50
000
ASUS44 KFWD 010415
RWRTX
NORTH TEXAS HOURLY WEATHER ROUNDUP
NATIONAL WEATHER SERVICE FORT WORTH TX
1100 PM CDT MON AUG 31 2015

NOTE: "FAIR" INDICATES FEW OR NO CLOUDS BELOW 12,000 FEET WITH NO
SIGNIFICANT WEATHER AND/OR OBSTRUCTIONS TO VISIBILITY.

TXZ118-119-010500-
DALLAS/FORT WORTH METROPLEX

CITY           SKY/WX    TMP DP  RH WIND       PRES   REMARKS
DFW AIRPORT    PTCLDY    84  64  50 SE12      29.98R
DALLAS LOVE    CLEAR     84  65  52 SE12      29.98R
FTW MEACHAM    CLEAR     85  65  51 SE10      29.98R
DAL-EXECUTIVE  CLEAR     82  65  56 SE8       29.99R
FTW-ALLIANCE   CLEAR     83  64  52 SE10      29.98R
FTW-NAS-JRB    CLEAR     86  65  49 SE10      29.99R
FTW-SPINKS     CLEAR     81  65  58 SE8       30.00R
ARLINGTON      CLEAR     85  64  49 SE9       29.99R
GRAND PRAIRIE  CLEAR     83  66  56 E7        30.00R
ADDISON        CLEAR     84  67  55 SE7       30.00S
MESQUITE       CLEAR     81  64  57 SE6       29.99R
LANCASTER      CLEAR     82  63  52 SE5       30.00R
$$

TXZ091>094-102>105-117-120-121-131>134-010500-
NORTH CENTRAL TEXAS

CITY           SKY/WX    TMP DP  RH WIND       PRES   REMARKS
SHRMAN/DENISON CLEAR     81  65  58 SE8       30.01S
GAINESVILLE    CLEAR     80  61  53 E9        30.02R
BOWIE          CLEAR     77  62  59 E3        30.00S
BRIDGEPORT     CLEAR     79  65  62 SE6       30.00S
DECATUR        CLEAR     81  61  51 SE8       30.00S
DENTON         CLEAR     83  64  52 SE9       29.98R
MCKINNEY       CLEAR     80  65  59 SE6       29.99S
GREENVILLE     CLEAR     73  63  68 SE3       30.00S
ROCKWALL       CLEAR     79  66  64 SE5       29.98S
TERRELL        CLEAR     80  66  62 E8        29.99S
WAXAHACHIE     CLEAR     81  67  62 SE3       30.01R
CLEBURNE         N/A     81  70  69 SE7       30.01R
GRANBURY       CLEAR     83  64  53 SE8       30.00R
$$

TXZ083>090-098>101-113>116-127>130-139>142-154-155-010500-
WESTERN NORTH TEXAS

CITY           SKY/WX    TMP DP  RH WIND       PRES   REMARKS
WICHITA FALLS  CLEAR     81  62  52 SE14      29.97R
WF-KICKAPOO    CLEAR     83  63  50 SE9       29.99R
VERNON         CLEAR     85  56  36 SE12      29.97R
ABILENE        CLEAR     79  60  52 SE10      30.00R
ABILENE-DYESS  CLEAR     81  61  49 SE8       29.98R
BRECKENRIDGE   CLEAR     82  61  48 SE7       29.98R
GRAHAM         CLEAR     82  63  52 SE6       29.97R
MINERAL WELLS  CLEAR     77  63  61 SE7       29.97R
STEPHENVILLE   CLEAR     79  64  59 SE7       30.03R
COMANCHE       CLEAR     80  64  56 S12G17    30.00R
BROWNWOOD      PTCLDY    79  59  50 SE12      30.00R
COLEMAN        CLEAR     79  59  50 SE5       30.01R
BRADY          CLEAR     81  57  44 SE6       30.01R
$$

TXZ143>147-156>162-174-175-010500-
CENTRAL TEXAS

CITY           SKY/WX    TMP DP  RH WIND       PRES   REMARKS
WACO           CLEAR     82  67  60 S14       29.99R
WACO-MCGREGOR  CLEAR     80  69  69 SE13      30.00R
HILLSBORO      CLEAR     81  65  57 SE10      30.00R
CORSICANA      CLEAR     81  69  67 S8        30.01R
MEXIA          CLEAR     78  70  76 SE10      29.99S
HEARNE         CLEAR     76  71  82 CALM      30.01R
CAMERON        CLEAR     79  70  74 SE6       29.99S
TEMPLE         CLEAR     79  64  61 SE10      30.00S
KILLEEN        CLEAR     78  66  66 S12       30.00R
KILLEEN-SKYLRK CLEAR     79  63  57 SE10      30.00R
FORT HOOD      CLEAR     79  66  65 SE9       29.99R
GATESVILLE     CLEAR     81  68  65 SE7       30.02S
HAMILTON       CLEAR     81  66  61 MISG      30.02R
$$

TXZ095>097-106>112-122>126-135>138-148>153-164>167-010500-
EAST TEXAS

CITY           SKY/WX    TMP DP  RH WIND       PRES   REMARKS
PARIS          CLEAR     75  61  60 E8        30.01S
SULPHUR SPRNGS CLEAR     79  64  60 SE6       30.02S
MOUNT PLEASANT CLEAR     74  66  75 E3        30.02S
MINEOLA        CLEAR     73  70  88 CALM      30.01S
TYLER          CLEAR     80  66  62 S8        30.01R
LONGVIEW       CLEAR     75  67  76 S7        30.01R
MARSHALL       PTCLDY    75  71  87 CALM      30.04R
ATHENS         CLEAR     77  66  69 CALM      30.00R
PALESTINE      CLEAR     79  69  71 SE3       30.02R
JACKSONVILLE   CLEAR     78  67  69 S3        30.05R
HENDERSON      PTCLDY    74  66  75 CALM      30.03R
CENTER         FAIR      75  67  76 SE3       30.02R
NACOGDOCHES    PTCLDY    75  66  73 SE3       30.02R
LUFKIN         PTCLDY    74  69  85 SE3       30.02R
$$

SUPPLEMENTAL OBSERVATIONS (CENTRAL)

CITY           SKY/WX    TMP DP  RH WIND       PRES   REMARKS
LAKE TEXOMA      N/A     77  64  65 E2          N/A
PAT MAYSE LAKE   N/A     81  64  57 E7          N/A
ATHENS           N/A     81  66  61 S6          N/A
MCGREGOR         N/A     81  68  65 S12G20      N/A
TEMPLE           N/A     77  66  69 SE6         N/A
$$

SUPPLEMENTAL OBSERVATIONS (WEST)

CITY           SKY/WX    TMP DP  RH WIND       PRES   REMARKS
MILLERS CREEK    N/A     82  61  47 SE12        N/A
POSSUM KINGDOM   N/A     82  59  44 SE8         N/A
GRANBURY         N/A     82  64  54 SE9         N/A
HAMBY            N/A     81  59  47 SE9         N/A
$$

SUPPLEMENTAL OBSERVATIONS (EAST)

CITY           SKY/WX    TMP DP  RH WIND       PRES   REMARKS
CLARKSVILLE      N/A     77  64  65 SE2         N/A
TEXARKANA        N/A     70  68  94 CALM        N/A
LINDEN           N/A     73  66  78 CALM        N/A
CADDO LAKE       N/A     70  68  94 CALM        N/A
GILMER           N/A     73  68  83 CALM        N/A
HENDERSON        N/A     75  63  64 CALM        N/A
LUFKIN           N/A     75  68  78 MISG        N/A
N SABINE NF      N/A     73  66  78 MISG        N/A
S SABINE NF      N/A     73  68  83 CALM        N/A
$$

SUPPLEMENTAL OBSERVATIONS ARE A COLLECTION OF AUTOMATED INSTRUMENTS
THAT ARE MAINTAINED BY A VARIETY OF FEDERAL AND STATE AGENCIES.
CERTAIN ELEMENTS...SUCH AS HUMIDITY VALUES AND SUSTAINED WIND
SPEEDS...MAY BE APPROXIMATED.



USA.gov is the U.S. government's official web portal to all federal, state and local government web resources and services.